Location: Home
(42.5358°N, 72.7383°W)
Time: 06:00:28
(UTC-05:00)

Courier 1B Rocket - Pass Details

Date: 04 December 2021
Orbit: 920 x 1202 km, 28.2° (Epoch: 25 January)

Event Time Altitude Azimuth Distance (km) Brightness Sun altitude
Rises 01:27:37 0° 249° (WSW) 3,559 - -60.0°
Reaches altitude 10° 01:30:58 10° 233° (SW) 2,604 - -59.5°
Maximum altitude 01:35:12 19° 189° (S) 2,025 - -58.8°
Drops below altitude 10° 01:39:28 10° 146° (SE) 2,624 - -58.1°
Sets 01:42:52 0° 129° (SE) 3,595 - -57.6°
